Regional Weather Roundup
Issued by NWS Upton, NY

Current Version | Previous Version | Text Only | Print | Product List | Glossary On
Versions: 1 2 3 4 5 6 7 8 9 10 11 12 13 14 15 16 17 18 19 20 21 22 23 24 25 26 27 28 29
000 ASUS41 KOKX 261004 RWROKX REGIONAL WEATHER ROUNDUP NATIONAL WEATHER SERVICE NEW YORK NY 600 AM EDT FRI AUG 26 2016 NOTE: "FAIR" INDICATES FEW OR NO CLOUDS BELOW 12,000 FEET WITH NO SIGNIFICANT WEATHER AND/OR OBSTRUCTIONS TO VISIBILITY. NYZ071-072-176-178-NJZ106-104-261100- NEW YORK CITY METRO AREA CITY SKY/WX TMP DP RH WIND PRES REMARKS Central Park N/A 75 70 83 MISG N/A LaGuardia APRT FAIR 77 70 79 S10 29.97R Kennedy INTL MOCLDY 74 70 87 SW9 30.00R Newark/Liberty MOCLDY 76 70 82 SW10 29.98R Bronx Bot Gard N/A 77 68 73 SW6 29.99F Wall St Helipt FAIR 75 72 88 SW5 29.99S Teterboro CLOUDY 76 70 82 S7 29.97R $$ NYZ177-179-078>081-261100- LONG ISLAND NEW YORK CITY SKY/WX TMP DP RH WIND PRES REMARKS Farmingdale FAIR 74 69 85 SW10 29.99S MacArthur/ISP FAIR 74 70 87 SW10 29.99R Shirley FAIR 74 71 91 S9 30.00S Riverhead NOT AVBL Westhampton FAIR 73 70 90 SW8 30.01S Southampton N/A 73 72 94 SW6 29.96S Bridgehampton N/A 72 70 94 CALM 29.98F East Hampton CLOUDY 73 70 91 SW8 29.99S Montauk N/A 73 71 93 SW7 30.00S $$ NYZ052-065-067-261100- HUDSON VALLEY CITY SKY/WX TMP DP RH WIND PRES REMARKS White Plains FAIR 73 70 90 CALM 29.98S Newburgh MOCLDY 72 72 100 CALM 29.98S Montgomery CLOUDY 71 69 93 CALM 29.97R Poughkeepsie MOCLDY 70 68 93 CALM 29.95S Albany CLOUDY 72 70 93 S3 29.93S $$ NJZ001-105-106-008-010-013-015-019>022-104-261100- NEW JERSEY CITY SKY/WX TMP DP RH WIND PRES REMARKS Newark/Liberty MOCLDY 76 70 82 SW10 29.98R Teterboro CLOUDY 76 70 82 S7 29.97R Caldwell FAIR 75 71 87 S6 29.98S Morristown FAIR 72 72 100 CALM 29.98S Somerville FAIR 70 68 93 CALM 29.98R FOG Linden FAIR 75 69 82 CALM 30.00S Sussex CLOUDY 70 70 100 CALM 29.98S FOG Abdover N/A 71 70 96 CALM 29.99S Trenton MOCLDY 74 69 85 CALM 30.00R Millville FAIR 74 74 100 CALM 30.02S Atlantic City FAIR 74 69 85 SW7 30.01S Wrightstown NOT AVBL Toms River FAIR 72 69 90 SW6 30.01R Belmar FAIR 72 69 90 SW6 30.01S $$ PAZ047>061-062-071-261100- EASTERN PENNSYLVANIA CITY SKY/WX TMP DP RH WIND PRES REMARKS Philadelphia MOCLDY 76 72 87 SW9 30.01R Allentown CLOUDY 73 70 90 CALM 30.00R FOG Scranton FAIR 74 72 93 SW6 30.02R $$ CTZ002-004>006-009-010-012-RIZ004-006-007-MAZ004-011-015-261100- SOUTHERN NEW ENGLAND IN CT CITY SKY/WX TMP DP RH WIND PRES REMARKS Bradley INTL MOCLDY 72 69 90 S9 29.96S Hartford FAIR 75 71 87 S7 29.96S Danbury FAIR 73 70 90 W5 29.99R Wtrbury/Oxford MOCLDY 72 66 83 SW5 30.01S FOG Bridgeport MOCLDY 77 70 79 SW10 29.97S Meriden FAIR 72 69 90 CALM 29.97S New Haven CLOUDY 75 71 87 SW6 29.98R Chester FAIR 73 72 94 VRB6 30.00R Groton MOCLDY 75 71 87 SW7 29.98R Wilimantic CLOUDY 71 70 96 CALM 29.99R IN RI CITY SKY/WX TMP DP RH WIND PRES REMARKS Providence MOCLDY 74 69 85 SW9 29.98R Block Island FAIR 73 71 93 SW15 30.00S Westerly FAIR 74 68 81 SW8 30.00R IN MA CITY SKY/WX TMP DP RH WIND PRES REMARKS Boston MOCLDY 73 70 90 SW10 29.96R Worcester MOCLDY 68 66 93 SW8 29.99S FOG Westfield MOCLDY 69 66 90 CALM 29.95S Provincetown MOCLDY 72 70 94 S9 29.97S Nantucket CLOUDY 71 68 90 S14 30.01R $$ ANZ330-335-338-340-345-350-353-355-261100- COASTAL MARINE OBSERVATIONS STATION/POSITION TIME SKY/WX TEMP WIND PRES VSBY WAVE AIR SEA DIR/SP/G HT/PER (UTC) (F) (DEG/KT/KT) (MB) (MI) (FT/S) NY HARB ENTRANCE 0850 75 72 220/ 14/ 16 1015.0 3/ 6 20S FIRE ISLAND 0850 76 74 230/ 16/ 19 1015.4 4/ 6 GREAT SOUTH BAY 0900 76 78 230/ 14/ 14 N/A 23 SSW MONTAUK P 0850 76 74 220/ 16/ 17 1016.1 4/ 6 15 E BARNEGAT LI 0900 74 N/A 3/ 5 HUDSON CANYON 0850 78 78 1016.4 4/ 5 KINGS POINT 0900 75 76 1014.7 EXECUTION ROCKS 0900 76 180/ 8/ 10 N/A CENTRAL LI SOUND 0900 75 75 210/ 14/ 16 N/A 1/ 3 EASTERN LI SOUND 0900 73 71 220/ 12/ 14 N/A ROBBINS REEF 0906 75 190/ 6/ 7 1014.5 $$ >>>>>>>>>>>>>>>>>>>>>>>>>>>> KEY <<<<<<<<<<<<<<<<<<<<<<<<<<< > < > SKY/WX - Sky Condition/Present Weather < > TMP - Temperature in Fahrenheit < > DP - Dew Point in Fahrenheit < > RH - Relative Humidity in Percent < > WIND - Direction (from) and Speed in MPH < > PRES - Mean Sea Level Pressure (inches of Hg) < > WCI - Wind Chill Index < > VSB - VISIBILITY IN MILES < > HX - HEAT INDEX < > TC - TEMPERATURE IN CELSIUS < > VRB - VARIABLE WIND DIRECTION < > < >>>>>>>>>>>>>>>>>>>>>>>>>>>> KEY <<<<<<<<<<<<<<<<<<<<<<<<<<<

USA.gov is the U.S. government's official web portal to all federal, state and local government web resources and services.